Location: Spring Mountain Observatory
(40.2501°N, 75.4333°W)
Time: 15:51:30
(UTC-05:00)

N. Korean satellite - Visible Passes

Search period start: 20 January 2018 00:00
Search period end: 30 January 2018 00:00
Orbit: 459 x 515 km, 97.2° (Epoch: 19 January)

Date Brightness Start Highest point End Pass type
(mag) Time Alt. Az. Time Alt. Az. Time Alt. Az.
20 Jan 6.4 06:49:00 10° N 06:52:28 85° W 06:55:54 10° SSW visible
20 Jan 9.9 18:59:28 10° SW 19:01:33 15° W 19:03:36 10° WNW visible
21 Jan 7.9 06:25:28 10° NNE 06:28:47 42° E 06:32:04 10° S visible
21 Jan 8.8 18:34:36 10° SSW 18:37:45 28° W 18:40:52 10° NW visible
22 Jan 9.4 06:02:20 10° NE 06:05:01 21° E 06:07:41 10° SE visible
22 Jan 7.2 18:10:30 10° S 18:14:02 59° W 18:17:33 10° NNW visible
23 Jan 10.3 05:40:30 10° E 05:41:11 10° E 05:41:51 10° ESE visible
23 Jan 6.5 17:46:51 10° SSE 17:50:23 63° ENE 17:53:53 10° N visible
24 Jan 9.9 18:58:17 10° SW 19:00:21 15° W 19:02:25 10° WNW visible
25 Jan 8.0 06:24:16 10° NNE 06:27:33 41° E 06:30:52 10° S visible
25 Jan 8.8 18:33:26 10° SSW 18:36:34 28° W 18:39:39 10° NW visible
26 Jan 9.5 06:01:08 10° NE 06:03:47 20° E 06:06:27 10° SE visible
26 Jan 7.1 18:09:19 10° S 18:12:49 61° W 18:16:19 10° NNW visible
27 Jan 10.4 05:39:26 10° E 05:39:57 10° E 05:40:28 10° E visible
27 Jan 6.5 17:45:40 10° SSE 17:49:10 61° ENE 17:52:38 10° N visible
28 Jan 6.5 06:46:33 10° NNE 06:50:01 90° WNW 06:53:32 10° SSW visible
28 Jan 9.9 18:57:03 10° SW 18:59:07 15° W 19:01:11 10° WNW visible
29 Jan 8.1 06:23:00 10° NNE 06:26:19 40° E 06:29:39 10° S visible
29 Jan 8.7 18:32:12 10° SSW 18:35:19 29° W 18:38:24 10° NW visible
